This is the latest recevied weather packets stored in our database for station/object M0UPS-13. If no packets are shown the sender has not sent any weather packets the latest 10 day(s).
| Time | Temp. | Humidity | Pressure | Rain* | Wind** | Luminosity | Snow |
|---|---|---|---|---|---|---|---|
| 1778087102 | 13.33° C | 52% | 1013.1 hPa | 0 mm | - | 36 W/m² | - |
| 1778086802 | 13.33° C | 51% | 1013.2 hPa | 0 mm | - | 34 W/m² | - |
| 1778086502 | 13.89° C | 53% | 1013.1 hPa | 0 mm | - | 34 W/m² | - |
| 1778086202 | 14.44° C | 53% | 1013.1 hPa | 0 mm | - | 39 W/m² | - |
| 1778085902 | 15° C | 51% | 1013.1 hPa | 0 mm | - | 48 W/m² | - |
| 1778085602 | 15.56° C | 50% | 1013.2 hPa | 0 mm | - | 65 W/m² | - |
| 1778085302 | 15.56° C | 50% | 1013.1 hPa | 0 mm | - | 189 W/m² | - |
| 1778085002 | 15.56° C | 53% | 1013.3 hPa | 0 mm | - | 190 W/m² | - |
| 1778084702 | 15.56° C | 51% | 1013.2 hPa | 0 mm | - | 230 W/m² | - |
| 1778084402 | 14.44° C | 52% | 1013.3 hPa | 0 mm | - | 304 W/m² | - |
| 1778084103 | 14.44° C | 52% | 1013.2 hPa | 0 mm | - | 230 W/m² | - |
| 1778083802 | 13.89° C | 54% | 1013.2 hPa | 0 mm | - | 211 W/m² | - |
| 1778083502 | 13.89° C | 52% | 1013.3 hPa | 0 mm | - | 216 W/m² | - |
| 1778083202 | 13.89° C | 56% | 1013.2 hPa | 0 mm | - | 216 W/m² | - |
| 1778082903 | 13.89° C | 54% | 1013.4 hPa | 0 mm | - | 202 W/m² | - |
| 1778082603 | 13.33° C | 55% | 1013.3 hPa | 0 mm | - | 189 W/m² | - |
| 1778082302 | 13.33° C | 53% | 1013.5 hPa | 0 mm | - | 174 W/m² | - |
| 1778082003 | 13.33° C | 53% | 1013.5 hPa | 0 mm | - | 172 W/m² | - |
| 1778081703 | 13.33° C | 55% | 1013.5 hPa | 0 mm | - | 164 W/m² | - |
| 1778081403 | 13.33° C | 55% | 1013.5 hPa | 0 mm | - | 157 W/m² | - |
| 1778081102 | 13.33° C | 56% | 1013.4 hPa | 0 mm | - | 146 W/m² | - |
| 1778080802 | 13.33° C | 56% | 1013.4 hPa | 0 mm | - | 149 W/m² | - |
| 1778080502 | 13.33° C | 57% | 1013.3 hPa | 0 mm | - | 138 W/m² | - |
| 1778080203 | 13.33° C | 58% | 1013.5 hPa | 0 mm | - | 128 W/m² | - |
| 1778079902 | 13.33° C | 57% | 1013.5 hPa | 0 mm | - | 116 W/m² | - |
* Rain latest hour (hover to see other rain measurements)
** Current wind speed in m/s (hover to see current wind gust speed)